Monroe, MI

6:49 AM EDT on August 20, 2017 (GMT -0400)
Custer

Weather History for KTTF - December, 2012

Change the Weather History Date:

Sunday, December 23, 2012

  Actual Average Record
Temperature  
Mean Temperature 29 °F -  
Max Temperature 37 °F 33 °F 61 °F (2015)
Min Temperature 21 °F 20 °F -11 °F (1989)
Degree Days  
Heating Degree Days 36    
Moisture  
Dew Point 24 °F    
Average Humidity 83    
Maximum Humidity 100    
Minimum Humidity 60    
Precipitation  
Precipitation 0.00 in - - ()
Sea Level Pressure  
Sea Level Pressure 29.95 in    
Wind  
Wind Speed 4 mph (WNW)    
Max Wind Speed 9 mph    
Max Gust Speed -    
Visibility 9 miles    
Events      
Averages and records for this station are not official NWS values.
T = Trace of Precipitation, MM = Missing Value Source: NWS Daily Summary

Daily Weather History Graph

Daily Weather History Graph

Search for Another Location

Airport or City:

Trip Planner

Search our weather history database for the weather conditions in past years. The results will help you decide how hot, cold, wet, or windy it might be!

Date:

Astronomy

Dec. 23, 2012 Rise Set
Actual Time 7:59 AM EST 5:06 PM EST
Civil Twilight 7:27 AM EST 5:38 PM EST
Nautical Twilight 6:52 AM EST 6:13 PM EST
Astronomical Twilight 6:18 AM EST 6:47 PM EST
Moon 1:58 PM EST (12/23) 3:38 AM EST (12/23)
Length of Visible Light 10h 11m
Length of Day
9h 07m
Waxing Gibbous, 81% of the Moon is Illuminated
Dec 23
Waxing Gibbous
Dec 28
Full
Jan 4
Last Quarter
Jan 11
New
Jan 18
First Quarter

Hourly Weather History & Observations

Time (EST) Temp. Windchill Dew Point Humidity Pressure Visibility Wind Dir Wind Speed Gust Speed Precip Events Conditions
12:12 AM 26.6 °F 18.2 °F 23.0 °F 86% 30.01 in 10.0 mi WSW 8.1 mph - N/A   Clear
12:32 AM 26.6 °F 19.1 °F 24.8 °F 93% 30.00 in 10.0 mi WSW 6.9 mph - N/A   Clear
12:52 AM 26.6 °F 19.1 °F 24.8 °F 93% 29.99 in 10.0 mi WSW 6.9 mph - N/A   Clear
1:12 AM 26.6 °F 19.1 °F 23.0 °F 86% 29.98 in 10.0 mi SW 6.9 mph - N/A   Clear
1:32 AM 26.6 °F 18.2 °F 23.0 °F 86% 29.98 in 10.0 mi SW 8.1 mph - N/A   Clear
1:53 AM 26.6 °F 19.1 °F 23.0 °F 86% 29.97 in 10.0 mi SW 6.9 mph - N/A   Clear
2:13 AM 24.8 °F 17.9 °F 21.2 °F 86% 29.97 in 10.0 mi SW 5.8 mph - N/A   Clear
2:33 AM 24.8 °F 19.1 °F 21.2 °F 86% 29.96 in 10.0 mi SW 4.6 mph - N/A   Clear
2:53 AM 24.8 °F 20.5 °F 21.2 °F 86% 29.95 in 10.0 mi WSW 3.5 mph - N/A   Clear
3:13 AM 24.8 °F - 21.2 °F 86% 29.94 in 10.0 mi Calm Calm - N/A   Clear
3:33 AM 24.8 °F 20.5 °F 21.2 °F 86% 29.93 in 10.0 mi SSW 3.5 mph - N/A   Clear
3:53 AM 24.8 °F - 21.2 °F 86% 29.92 in 10.0 mi Calm Calm - N/A   Clear
4:13 AM 23.0 °F 18.4 °F 21.2 °F 93% 29.91 in 10.0 mi SSW 3.5 mph - N/A   Clear
4:33 AM 23.0 °F - 21.2 °F 93% 29.91 in 7.0 mi Calm Calm - N/A   Clear
4:53 AM 23.0 °F - 21.2 °F 93% 29.90 in 10.0 mi Calm Calm - N/A   Clear
5:14 AM 23.0 °F - 21.2 °F 93% 29.90 in 7.0 mi Calm Calm - N/A   Clear
5:34 AM 23.0 °F 18.4 °F 21.2 °F 93% 29.89 in 10.0 mi SW 3.5 mph - N/A   Clear
5:54 AM 23.0 °F - 21.2 °F 93% 29.89 in 10.0 mi Calm Calm - N/A   Clear
6:14 AM 21.2 °F - 19.4 °F 93% 29.90 in 7.0 mi Calm Calm - N/A   Clear
6:34 AM 21.2 °F - 21.2 °F 100% 29.89 in 7.0 mi Calm Calm - N/A   Clear
6:54 AM 21.2 °F - 21.2 °F 100% 29.90 in 7.0 mi Calm Calm - N/A   Clear
7:14 AM 21.2 °F - 21.2 °F 100% 29.89 in 7.0 mi Calm Calm - N/A   Clear
7:34 AM 21.2 °F - 21.2 °F 100% 29.90 in 7.0 mi Calm Calm - N/A   Clear
7:54 AM 21.2 °F - 21.2 °F 100% 29.90 in 7.0 mi Calm Calm - N/A   Clear
8:15 AM 21.2 °F - 21.2 °F 100% 29.91 in 5.0 mi Calm Calm - N/A   Clear
8:35 AM 23.0 °F - 21.2 °F 93% 29.91 in 7.0 mi Calm Calm - N/A   Clear
8:55 AM 24.8 °F 20.5 °F 21.2 °F 86% 29.91 in 7.0 mi WSW 3.5 mph - N/A   Clear
9:15 AM 26.6 °F 20.0 °F 23.0 °F 86% 29.91 in 7.0 mi West 5.8 mph - N/A   Clear
9:35 AM 26.6 °F 20.0 °F 24.8 °F 93% 29.91 in 7.0 mi West 5.8 mph - N/A   Clear
9:55 AM 28.4 °F 22.2 °F 24.8 °F 86% 29.91 in 7.0 mi West 5.8 mph - N/A   Clear
10:15 AM 28.4 °F 22.2 °F 24.8 °F 86% 29.92 in 7.0 mi WNW 5.8 mph - N/A   Clear
10:35 AM 30.2 °F 23.4 °F 24.8 °F 80% 29.93 in 10.0 mi WNW 6.9 mph - N/A   Clear
10:55 AM 32.0 °F 26.4 °F 26.6 °F 80% 29.93 in 10.0 mi NW 5.8 mph - N/A   Clear
11:15 AM 32.0 °F 25.6 °F 26.6 °F 80% 29.93 in 10.0 mi NNW 6.9 mph - N/A   Clear
11:35 AM 33.8 °F 27.7 °F 26.6 °F 75% 29.93 in 10.0 mi NW 6.9 mph - N/A   Clear
11:56 AM 33.8 °F - 26.6 °F 75% 29.92 in 10.0 mi Calm Calm - N/A   Clear
12:11 PM 33.8 °F 28.6 °F 24.8 °F 70% 29.92 in 10.0 mi WNW 5.8 mph - N/A   Clear
12:31 PM 35.6 °F 29.2 °F 24.8 °F 65% 29.92 in 10.0 mi NW 8.1 mph - N/A   Clear
12:51 PM 35.6 °F 30.7 °F 24.8 °F 65% 29.91 in 10.0 mi NW 5.8 mph - N/A   Clear
1:11 PM 35.6 °F 31.7 °F 24.8 °F 65% 29.91 in 10.0 mi NNW 4.6 mph - N/A   Clear
1:31 PM 37.4 °F 32.8 °F 24.8 °F 60% 29.91 in 10.0 mi North 5.8 mph - N/A   Clear
1:51 PM 37.4 °F 32.1 °F 24.8 °F 60% 29.91 in 10.0 mi NW 6.9 mph - N/A   Clear
2:11 PM 37.4 °F 30.8 °F 24.8 °F 60% 29.91 in 10.0 mi NW 9.2 mph - N/A   Clear
2:31 PM 37.4 °F 32.1 °F 24.8 °F 60% 29.91 in 10.0 mi NNW 6.9 mph - N/A   Clear
2:52 PM 37.4 °F 33.8 °F 24.8 °F 60% 29.92 in 10.0 mi NNW 4.6 mph - N/A   Clear
3:12 PM 37.4 °F 33.8 °F 24.8 °F 60% 29.92 in 10.0 mi NNW 4.6 mph - N/A   Scattered Clouds
3:32 PM 37.4 °F 33.8 °F 26.6 °F 65% 29.93 in 10.0 mi WNW 4.6 mph - N/A   Clear
3:52 PM 35.6 °F 30.7 °F 26.6 °F 70% 29.93 in 10.0 mi NW 5.8 mph - N/A   Scattered Clouds
4:12 PM 35.6 °F 32.8 °F 26.6 °F 70% 29.94 in 10.0 mi NW 3.5 mph - N/A   Scattered Clouds
4:32 PM 35.6 °F - 26.6 °F 70% 29.94 in 10.0 mi Calm Calm - N/A   Scattered Clouds
4:52 PM 35.6 °F 32.8 °F 26.6 °F 70% 29.95 in 10.0 mi West 3.5 mph - N/A   Mostly Cloudy
5:12 PM 33.8 °F 29.6 °F 26.6 °F 75% 29.96 in 10.0 mi NNW 4.6 mph - N/A   Scattered Clouds
5:32 PM 32.0 °F 28.7 °F 26.6 °F 80% 29.97 in 10.0 mi NW 3.5 mph - N/A   Clear
5:53 PM 32.0 °F 26.4 °F 24.8 °F 75% 29.97 in 10.0 mi NW 5.8 mph - N/A   Clear
6:13 PM 32.0 °F 28.7 °F 24.8 °F 75% 29.97 in 10.0 mi NNW 3.5 mph - N/A   Clear
6:33 PM 30.2 °F 26.7 °F 24.8 °F 80% 29.98 in 10.0 mi NNW 3.5 mph - N/A   Clear
6:53 PM 30.2 °F - 24.8 °F 80% 29.98 in 10.0 mi Calm Calm - N/A   Clear
7:13 PM 30.2 °F - 26.6 °F 86% 29.99 in 10.0 mi Calm Calm - N/A   Scattered Clouds
7:33 PM 30.2 °F 26.7 °F 24.8 °F 80% 30.00 in 10.0 mi NNW 3.5 mph - N/A   Overcast
7:53 PM 30.2 °F 26.7 °F 24.8 °F 80% 30.00 in 10.0 mi NNW 3.5 mph - N/A   Mostly Cloudy
8:13 PM 30.2 °F - 24.8 °F 80% 30.01 in 10.0 mi Calm Calm - N/A   Scattered Clouds
8:33 PM 28.4 °F - 24.8 °F 86% 30.01 in 10.0 mi Calm Calm - N/A   Clear
8:53 PM 28.4 °F - 24.8 °F 86% 30.01 in 10.0 mi Calm Calm - N/A   Clear
9:13 PM 28.4 °F - 24.8 °F 86% 30.01 in 10.0 mi Calm Calm - N/A   Clear
9:34 PM 28.4 °F - 24.8 °F 86% 30.01 in 10.0 mi Calm Calm - N/A   Clear
9:54 PM 24.8 °F - 23.0 °F 93% 30.02 in 10.0 mi Calm Calm - N/A   Clear
10:14 PM 26.6 °F - 23.0 °F 86% 30.01 in 10.0 mi Calm Calm - N/A   Clear
10:34 PM 24.8 °F - 23.0 °F 93% 30.01 in 10.0 mi Calm Calm - N/A   Clear
10:54 PM 24.8 °F - 21.2 °F 86% 30.01 in 10.0 mi Calm Calm - N/A   Clear
11:14 PM 24.8 °F - 23.0 °F 93% 30.01 in 10.0 mi Calm Calm - N/A   Clear
11:34 PM 24.8 °F - 21.2 °F 86% 30.00 in 10.0 mi Calm Calm - N/A   Clear
11:54 PM 24.8 °F - 23.0 °F 93% 29.99 in 10.0 mi Calm Calm - N/A   Clear